Location: *
(49.3500°N, 12.6000°E)
Time: 17:45:40
(UTC+00:00)

STARLINK-27 - Pass Details

Date: 18 October 2019
Orbit: 548 x 551 km, 53.0° (Epoch: 21 November)

Event Time Altitude Azimuth Distance (km) Brightness Sun altitude
Rises 18:11:50 0° 273° (W) 2,717 8.8 -19.9°
Reaches altitude 10° 18:14:07 10° 278° (W) 1,825 7.5 -20.2°
Maximum altitude 18:18:09 51° 355° (N) 700 4.1 -20.9°
Enters shadow 18:18:57 44° 33° (NNE) 774 4.1 -21.0°
